Weather History for Clinton, MO

Change the Weather History Date:

Sunday, March 31, 2013

  Actual Average (KSZL) Record (KSZL)
Temperature  
Mean Temperature 55 °F -  
Max Temperature 66 °F 60 °F 82 °F (2012)
Min Temperature 42 °F 39 °F 28 °F (2004)
Degree Days  
Heating Degree Days 10    
Growing Degree Days 5 (Base 50)    
Moisture  
Dew Point 45 °F    
Average Humidity 73    
Maximum Humidity 100    
Minimum Humidity 37    
Precipitation  
Precipitation 0.00 in - - ()
Sea Level Pressure  
Sea Level Pressure 29.95 in    
Wind  
Wind Speed 3 mph (NW)    
Max Wind Speed 14 mph    
Max Gust Speed 18 mph    
Visibility 7 miles    
Events Fog , Rain , Thunderstorm    
Averages and records for this station are not official NWS values.
T = Trace of Precipitation, MM = Missing Value Source: NWS Daily Summary

Daily Weather History Graph

Daily Weather History Graph

Search for Another Location

Airport:

Trip Planner

Search our weather history database for the weather conditions in past years. The results will help you decide how hot, cold, wet, or windy it might be!

Date:

Astronomy

Mar. 31, 2013 Rise Set
Actual Time 7:00 AM CDT 7:37 PM CDT
Civil Twilight 6:34 AM CDT 8:04 PM CDT
Nautical Twilight 6:02 AM CDT 8:35 PM CDT
Astronomical Twilight 5:30 AM CDT 9:07 PM CDT
Moon No Moon Rise 9:52 AM CDT (3/31)
Length of Visible Light 13h 29m
Length of Day
12h 36m
Waning Gibbous, 77% of the Moon is Illuminated
Mar 31
Waning Gibbous
Apr 2
Last Quarter
Apr 10
New
Apr 18
First Quarter
Apr 25
Full

Hourly Weather History & Observations

Time (CDT) Temp. Dew Point Humidity Pressure Visibility Wind Dir Wind Speed Gust Speed Precip Events Conditions
12:15 AM 46.4 °F 46.4 °F 100% 29.92 in 0.2 mi Calm Calm - N/A Fog Fog
12:35 AM 48.2 °F 48.2 °F 100% 29.91 in 1.2 mi Calm Calm - N/A   Clear
12:55 AM 48.2 °F 48.2 °F 100% 29.92 in 1.2 mi SSW 4.6 mph - N/A   Mostly Cloudy
1:15 AM 46.4 °F 46.4 °F 100% 29.93 in 1.2 mi Calm Calm - N/A   Mostly Cloudy
1:35 AM 48.2 °F 48.2 °F 100% 29.93 in 4.0 mi Calm Calm - N/A   Mostly Cloudy
1:55 AM 48.2 °F 48.2 °F 100% 29.93 in 5.0 mi Calm Calm - N/A   Mostly Cloudy
2:15 AM 48.2 °F 48.2 °F 100% 29.92 in 3.0 mi Calm Calm - N/A   Mostly Cloudy
2:35 AM 48.2 °F 48.2 °F 100% 29.92 in 3.0 mi Calm Calm - N/A Thunderstorm Mostly Cloudy
2:55 AM 48.2 °F 48.2 °F 100% 29.91 in 3.0 mi NE 5.8 mph - N/A Rain Light Rain
3:15 AM 48.2 °F 48.2 °F 100% 29.93 in 2.5 mi West 11.5 mph - N/A Rain , Thunderstorm Thunderstorms and Rain
3:35 AM 50.0 °F 50.0 °F 100% 29.93 in 4.0 mi Calm Calm - N/A Rain , Thunderstorm Rain
3:55 AM 51.8 °F 51.8 °F 100% 29.93 in 5.0 mi Calm Calm - N/A   Mostly Cloudy
4:15 AM 51.8 °F 51.8 °F 100% 29.94 in 5.0 mi North 4.6 mph - N/A   Overcast
4:35 AM 51.8 °F 51.8 °F 100% 29.95 in 5.0 mi Calm Calm - N/A Thunderstorm Overcast
4:55 AM 51.8 °F 51.8 °F 100% 29.94 in 4.0 mi Calm Calm - N/A   Scattered Clouds
5:15 AM 50.0 °F 50.0 °F 100% 29.94 in 1.5 mi Calm Calm - N/A   Scattered Clouds
5:35 AM 48.2 °F 48.2 °F 100% 29.95 in 2.5 mi Calm Calm - N/A   Partly Cloudy
5:55 AM 50.0 °F 50.0 °F 100% 29.95 in 2.0 mi Calm Calm - N/A   Light Drizzle
6:15 AM 50.0 °F 50.0 °F 100% 29.95 in 2.5 mi South 3.5 mph - N/A   Clear
6:35 AM 48.2 °F 48.2 °F 100% 29.95 in 2.0 mi Calm Calm - N/A   Clear
6:55 AM 48.2 °F 48.2 °F 100% 29.97 in 1.0 mi Calm Calm - N/A   Mostly Cloudy
7:15 AM 48.2 °F 48.2 °F 100% 29.97 in 0.5 mi Calm Calm - N/A Fog Fog
7:35 AM 48.2 °F 48.2 °F 100% 29.97 in 0.2 mi Calm Calm - N/A Fog Fog
7:55 AM 48.2 °F 48.2 °F 100% 29.97 in 0.2 mi Calm Calm - N/A Fog Fog
8:15 AM 50.0 °F 50.0 °F 100% 29.97 in 0.2 mi Calm Calm - N/A Fog Fog
8:35 AM 51.8 °F 51.8 °F 100% 29.96 in 5.0 mi Calm Calm - N/A   Clear
8:55 AM 53.6 °F 50.0 °F 88% 29.95 in 7.0 mi NNW 6.9 mph - N/A   Clear
9:15 AM 55.4 °F 48.2 °F 77% 29.95 in 8.0 mi NNW 8.1 mph - N/A   Clear
9:55 AM 57.2 °F 48.2 °F 72% 29.94 in 8.0 mi North 9.2 mph - N/A   Clear
10:15 AM 57.2 °F 48.2 °F 72% 29.94 in 8.0 mi North 11.5 mph - N/A   Clear
10:35 AM 59.0 °F 46.4 °F 63% 29.95 in 9.0 mi NNW 10.4 mph - N/A   Clear
10:55 AM 60.8 °F 48.2 °F 63% 29.95 in 9.0 mi North 8.1 mph - N/A   Clear
11:15 AM 60.8 °F 46.4 °F 59% 29.96 in 9.0 mi North 8.1 mph - N/A   Clear
11:35 AM 60.8 °F 46.4 °F 59% 29.96 in 10.0 mi NW 10.4 mph - N/A   Clear
11:55 AM 62.6 °F 46.4 °F 55% 29.96 in 10.0 mi NW 6.9 mph - N/A   Clear
12:15 PM 62.6 °F 46.4 °F 55% 29.96 in 10.0 mi Calm Calm - N/A   Clear
12:35 PM 62.6 °F 44.6 °F 52% 29.95 in 10.0 mi WNW 3.5 mph - N/A   Clear
12:55 PM 64.4 °F 42.8 °F 45% 29.96 in 10.0 mi WNW 8.1 mph - N/A   Clear
1:15 PM 64.4 °F 42.8 °F 45% 29.95 in 10.0 mi NW 6.9 mph - N/A   Clear
1:35 PM 64.4 °F 44.6 °F 49% 29.95 in 10.0 mi West 9.2 mph - N/A   Clear
1:55 PM 64.4 °F 42.8 °F 45% 29.95 in 10.0 mi Calm Calm - N/A   Clear
2:15 PM 66.2 °F 42.8 °F 43% 29.95 in 10.0 mi West 6.9 mph - N/A   Scattered Clouds
2:35 PM 64.4 °F 42.8 °F 45% 29.94 in 10.0 mi West 8.1 mph - N/A   Mostly Cloudy
2:55 PM 64.4 °F 42.8 °F 45% 29.94 in 10.0 mi WSW 6.9 mph - N/A   Mostly Cloudy
3:15 PM 66.2 °F 42.8 °F 43% 29.93 in 10.0 mi WNW 12.7 mph - N/A   Scattered Clouds
3:35 PM 64.4 °F 42.8 °F 45% 29.93 in 10.0 mi WSW 10.4 mph - N/A   Mostly Cloudy
3:55 PM 66.2 °F 42.8 °F 43% 29.93 in 10.0 mi West 12.7 mph 18.4 mph N/A   Scattered Clouds
4:15 PM 66.2 °F 42.8 °F 43% 29.92 in 10.0 mi West 10.4 mph 16.1 mph N/A   Scattered Clouds
4:35 PM 64.4 °F 42.8 °F 45% 29.92 in 10.0 mi West 8.1 mph - N/A   Scattered Clouds
4:55 PM 66.2 °F 41.0 °F 40% 29.92 in 10.0 mi WNW 9.2 mph - N/A   Partly Cloudy
5:15 PM 66.2 °F 39.2 °F 37% 29.92 in 10.0 mi WNW 12.7 mph 16.1 mph N/A   Partly Cloudy
5:35 PM 64.4 °F 41.0 °F 42% 29.92 in 10.0 mi West 9.2 mph - N/A   Partly Cloudy
5:55 PM 64.4 °F 39.2 °F 40% 29.92 in 10.0 mi NW 8.1 mph - N/A   Partly Cloudy
6:15 PM 64.4 °F 41.0 °F 42% 29.92 in 10.0 mi NW 13.8 mph 18.4 mph N/A   Scattered Clouds
6:35 PM 62.6 °F 44.6 °F 52% 29.93 in 10.0 mi North 13.8 mph - N/A   Mostly Cloudy
6:55 PM 60.8 °F 44.6 °F 55% 29.93 in 10.0 mi North 11.5 mph - N/A   Mostly Cloudy
7:15 PM 57.2 °F 44.6 °F 63% 29.94 in 10.0 mi North 9.2 mph - N/A   Partly Cloudy
7:35 PM 55.4 °F 42.8 °F 63% 29.95 in 10.0 mi North 9.2 mph - N/A   Clear
7:55 PM 55.4 °F 41.0 °F 58% 29.95 in 10.0 mi North 8.1 mph - N/A   Clear
8:15 PM 53.6 °F 39.2 °F 58% 29.95 in 10.0 mi North 8.1 mph - N/A   Clear
8:35 PM 51.8 °F 39.2 °F 62% 29.96 in 10.0 mi North 6.9 mph - N/A   Clear
8:55 PM 50.0 °F 39.2 °F 66% 29.96 in 10.0 mi North 5.8 mph - N/A   Clear
9:15 PM 51.8 °F 37.4 °F 58% 29.97 in 10.0 mi Calm Calm - N/A   Clear
9:35 PM 51.8 °F 35.6 °F 54% 29.97 in 10.0 mi Calm Calm - N/A   Clear
9:55 PM 46.4 °F 37.4 °F 71% 29.97 in 10.0 mi Calm Calm - N/A   Clear
10:15 PM 46.4 °F 42.8 °F 87% 29.97 in 10.0 mi Calm Calm - N/A   Clear
10:35 PM 46.4 °F 39.2 °F 76% 29.97 in 10.0 mi Calm Calm - N/A   Clear
10:55 PM 46.4 °F 37.4 °F 71% 29.97 in 10.0 mi Calm Calm - N/A   Clear
11:15 PM 46.4 °F 37.4 °F 71% 29.97 in 10.0 mi Calm Calm - N/A   Clear
11:35 PM 44.6 °F 37.4 °F 76% 29.97 in 10.0 mi Calm Calm - N/A   Clear
11:55 PM 42.8 °F 41.0 °F 93% 29.97 in 10.0 mi Calm Calm - N/A   Clear